Printer-friendly version
Follow the MPC on Twitter Follow the MPC on Facebook The MPC blog
Minor Planet Center

MPEC 2004-Y21 : 2004 XM130

The following Minor Planet Electronic Circular may be linked-to from your own Web pages, but must not otherwise be redistributed electronically.

A form allowing access to any MPEC is at the bottom of this page.


Read MPEC 2004-Y20 Read MPEC 2004-Y22


M.P.E.C. 2004-Y21                                Issued 2004 Dec. 19, 14:37 UT

     The Minor Planet Electronic Circulars contain information on unusual
         minor planets and routine data on comets.  They are published
   on behalf of Commission 20 of the International Astronomical Union by the
          Minor Planet Center, Smithsonian Astrophysical Observatory,
                          Cambridge, MA 02138, U.S.A.

                  Supported in part by the Brinson Foundation
             Prepared using the Tamkin Foundation Computer Network

                              MPC@CFA.HARVARD.EDU
          URL http://cfa-www.harvard.edu/iau/mpc.html  ISSN 1523-6714

                                  2004 XM130

Observations:
     K04XD0M* C2004 12 14.50719 12 06 25.25 -01 58 23.1          18.7 R EY021703
     K04XD0M  C2004 12 14.51367 12 06 26.04 -01 58 41.9          18.4 R EY021703
     K04XD0M  C2004 12 14.52015 12 06 27.00 -01 59 01.9          18.3 R EY021703
     K04XD0M  C2004 12 14.52660 12 06 27.76 -01 59 20.9          18.5 R EY021703
     K04XD0M  C2004 12 15.48126 12 08 35.02 -02 47 05.8          18.9 R EY021703
     K04XD0M  C2004 12 15.48767 12 08 35.88 -02 47 26.4          18.6 R EY021703
     K04XD0M  C2004 12 15.49411 12 08 36.68 -02 47 44.8          18.4 R EY021703
     K04XD0M  C2004 12 15.50054 12 08 37.57 -02 48 04.9          18.4 R EY021703
     K04XD0M  C2004 12 16.12125 12 10 00.04 -03 19 17.7                 EY021246
     K04XD0M  C2004 12 16.12205 12 10 00.10 -03 19 20.3                 EY021246
     K04XD0M  C2004 12 16.12278 12 10 00.16 -03 19 23.2                 EY021246
     K04XD0M  C2004 12 16.12367 12 10 00.26 -03 19 25.5                 EY021246
     K04XD0M  C2004 12 16.12456 12 10 00.38 -03 19 28.2                 EY021246
     K04XD0M  C2004 12 16.12554 12 10 00.53 -03 19 30.1                 EY021246
     K04XD0M  C2004 12 16.39684 12 10 36.66 -03 33 09.5          20.1 R EY021854
     K04XD0M  C2004 12 16.40625 12 10 37.89 -03 33 37.4          20.4 R EY021854
     K04XD0M 2C2004 12 16.41520 12 10 39.01 -03 34 05.2          18.9 R EY021H06
     K04XD0M 2C2004 12 16.42085 12 10 39.72 -03 34 22.3          18.8 R EY021H06
     K04XD0M  C2004 12 16.47050 12 10 46.09 -03 36 53.5          19.4 R EY021H36
     K04XD0M  C2004 12 16.47497 12 10 46.75 -03 37 07.0          18.9 R EY021H36
     K04XD0M  C2004 12 16.48000 12 10 47.42 -03 37 23.3                 EY021H36
     K04XD0M  C2004 12 16.49719 12 10 49.72 -03 38 12.5          18.6 R EY021703
     K04XD0M  C2004 12 16.50420 12 10 50.60 -03 38 34.2          18.5 R EY021703
     K04XD0M  C2004 12 16.51124 12 10 51.53 -03 38 55.9          18.5 R EY021703
     K04XD0M  C2004 12 16.51825 12 10 52.40 -03 39 16.6          18.7 R EY021703
     K04XD0M  C2004 12 17.45291 12 12 56.17 -04 26 35.1          20.1 R EY021734
     K04XD0M  C2004 12 17.45506 12 12 56.40 -04 26 41.8          19.5 R EY021734
     K04XD0M  C2004 12 18.21701 12 14 36.42 -05 05 21.6          19.4 R EY021J95
     K04XD0M  C2004 12 18.22516 12 14 37.50 -05 05 47.8          19.3 R EY021J95
     K04XD0M  C2004 12 18.46270 12 15 08.94 -05 17 50.2                 EY021701
     K04XD0M  C2004 12 18.48781 12 15 12.47 -05 19 09.9                 EY021701
     K04XD0M  C2004 12 18.51309 12 15 15.49 -05 20 24.9                 EY021701
     K04XD0M  C2004 12 19.47340 12 17 21.42 -06 09 29.4          18.9 R EY021734
     K04XD0M  C2004 12 19.47626 12 17 21.47 -06 09 33.3          18.9 R EY021734
     K04XD0M  C2004 12 19.47911 12 17 22.18 -06 09 45.3          19.7 R EY021734
     K04XD0M  C2004 12 19.48481 12 17 22.90 -06 10 03.0          19.4 R EY021734

Observer details:
246 Klet Observatory-KLENOT.  Observer M. Tichy.  1.06-m KLENOT Telescope
    + CCD.
701 Junk Bond Observatory, Sierra Vista.  Observer D. Healy.  0.81-m f/4.8
    Ritchey-Chretien + CCD.
703 Catalina Sky Survey.  Observers S. M. Larson, R. Hill.  Measurers
    E. C. Beshore, C. M. Casey, E. J. Christensen, G. J. Garradd, R. E. Hill,
    S. M. Larson, R. H. McNaught.  0.68-m Schmidt + CCD.
734 Farpoint Observatory.  Observer G. Hug.  0.4-m f/6 Schmidt-Cassegrain
    + CCD.
854 Sabino Canyon Observatory, Tucson.  Observer J. E. McGaha.  0.36-m f/10.0
    Schmidt-Cassegrain + CCD.
H06 New Mexico Skies Observatory.  Observer R. Hutsebaut.  0.25-m reflector
    + CCD.
H36 Sandlot Observatory, Scranton.  Observer G. Hug.  0.3-m f/6
    Schmidt-Cassegrain + CCD.
J95 Great Shefford.  Observer P. Birtwhistle.  0.30-m f/6.3 Schmidt-Cassegrain
    + CCD.

Orbital elements:
2004 XM130
Epoch 2004 Dec. 1.0 TT = JDT 2453340.5                  MPC
M 353.87889              (2000.0)            P               Q
n   0.26100601     Peri.  190.42648     -0.75122120     -0.54881681
a   2.4249477      Node   309.75421     +0.63471977     -0.44822084
e   0.4855936      Incl.   28.48813     +0.18110084     -0.70561901
P   3.78           H   17.1           G   0.15
From 33 observations 2004 Dec. 14-19.

Ephemeris:
2004 XM130               a,e,i = 2.42, 0.49, 28                  q = 1.2474
Date    TT    R. A. (2000) Decl.     Delta      r     Elong.  Phase     V
2004 12 11    11 58.56   +00 54.9    0.970    1.256    79.9    50.5    19.4
2004 12 21    12 20.67   -07 27.7    0.922    1.248    81.7    51.3    19.3
2004 12 31    12 42.04   -16 10.4    0.887    1.249    83.7    51.5    19.2
2005 01 10    13 02.79   -24 57.1    0.864    1.260    85.7    51.1    19.2
2005 01 20    13 22.84   -33 29.7    0.853    1.279    88.0    50.2    19.2
2005 01 30    13 42.03   -41 32.0    0.851    1.307    90.4    48.9    19.2
2005 02 09    13 59.81   -48 52.0    0.857    1.341    93.1    47.3    19.2
2005 02 19    14 15.18   -55 21.7    0.867    1.382    96.1    45.3    19.2
2005 03 01    14 26.64   -60 57.2    0.881    1.428    99.3    43.2    19.3
2005 03 11    14 31.88   -65 36.1    0.897    1.479   102.8    40.9    19.3
2005 03 21    14 28.05   -69 13.3    0.914    1.533   106.7    38.5    19.4
2005 03 31    14 13.22   -71 40.3    0.932    1.589   110.8    36.0    19.4
2005 04 10    13 48.85   -72 46.0    0.953    1.648   114.9    33.5    19.5
2005 04 20    13 22.09   -72 24.3    0.979    1.708   118.9    31.0    19.5
2005 04 30    13 01.50   -70 45.0    1.011    1.769   122.4    28.7    19.6
2005 05 10    12 50.93   -68 08.5    1.053    1.830   125.0    26.9    19.7
2005 05 20    12 49.75   -64 57.9    1.106    1.891   126.4    25.5    19.9
2005 05 30    12 55.51   -61 33.4    1.173    1.952   126.3    24.7    20.0
2005 06 09    13 05.90   -58 09.6    1.255    2.013   124.7    24.5    20.3
2005 06 19    13 19.35   -54 57.1    1.351    2.073   121.7    24.6    20.5
2005 06 29    13 34.71   -52 02.6    1.461    2.133   117.7    25.0    20.7
2005 07 09    13 51.28   -49 28.7    1.586    2.192   112.9    25.3    21.0
2005 07 19    14 08.66   -47 16.2    1.722    2.249   107.7    25.5    21.2
2005 07 29    14 26.53   -45 23.8    1.868    2.306   102.1    25.5    21.4
2005 08 08    14 44.72   -43 49.1    2.023    2.361    96.4    25.3    21.7
2005 08 18    15 03.15   -42 29.7    2.184    2.416    90.6    24.8    21.9
2005 08 28    15 21.71   -41 22.6    2.349    2.469    84.6    24.0    22.0

Kyle E. Smalley              (C) Copyright 2004 MPC           M.P.E.C. 2004-Y21

Read MPEC 2004-Y20 Read MPEC 2004-Y22


MPEC number:

Enter an MPEC number in one of the following forms:

  • 1997-B01 (the full form)
  • J97B01 (the packed version of the full form)
  • B01 (the abbreviated form)

Valid HTML 4.01!